Location: Csohesd
(46.2500°N, 22.6167°E)
Time: 04:29:56
(UTC+00:00)

Cosmos 1953 - Pass Details

Date: 21 October 2021
Orbit: 537 x 557 km, 82.5° (Epoch: 30 November)

Event Time Altitude Azimuth Distance (km) Brightness Sun altitude
Rises 16:08:42 0° 178° (S) 2,724 6.0 -7.0°
Reaches altitude 10° 16:10:52 10° 174° (S) 1,836 5.0 -7.3°
Maximum altitude 16:14:51 59° 95° (E) 649 2.4 -8.0°
Drops below altitude 10° 16:18:52 10° 16° (NNE) 1,854 4.8 -8.7°
Sets 16:21:04 0° 13° (NNE) 2,754 5.7 -9.1°
